Flag for U.S.A. Weather past 2 weeks in Grand Junction, Colorado, U.S.A.

Now
46 °F

Clear.


Feels Like: 42 °F
Forecast: 41 / 76 °F
Wind: 8 mph from East

Location: Walker Field


UV Index: 5 (Moderate)

Visibility: 10 mi


Pressure: 29.86 "Hg

Humidity: 33%

Dew point: 18 °F

Location of Grand JunctionLocation

Historic Weather in Grand Junction

°F

Grand Junction temperature yesterday

Maximum temperature yesterday: 64 °F (at 4:53 PM)
Minimum temperature yesterday: 28 °F (at 4:53 AM)
Average temperature yesterday: 48 °F

Past Weeks' High & Low Weather Summary

 TemperatureHumidityPressure
High76 °F (Apr 11, 4:53 PM)96% (Apr 13, 8:53 AM)30.43 "Hg (Apr 13, 8:53 AM)
Low24 °F (Apr 14, 6:53 AM)7% (Apr 11, 4:53 PM)29.41 "Hg (Apr 22, 11:53 PM)
Average53 °F39%29.89 "Hg
* Reported Apr 10 12:53 AM — Apr 25 12:53 AM, Grand Junction, Weather by CustomWeather, © 2014

Note: Actual official high and low records may vary slightly from our data, if they occured in-between our weather recording intervals... More about our weather records

Advertising

Historic Weather Conditions — Data for Previous 24 hours

 ConditionsComfort  
Time TempWeatherWind HumidityBarometerVisibility
12:53 AM
Apr 25
46 °FClear.8 mph33%29.86 "Hg10 mi
11:53 PM
Apr 24
47 °FClear.8 mph32%29.87 "Hg10 mi
10:53 PM50 °FClear.5 mph26%29.88 "Hg10 mi
9:53 PM50 °FClear.5 mph26%29.90 "Hg10 mi
8:53 PM52 °FSunny.7 mph24%29.89 "Hg10 mi
7:53 PM60 °FSunny.No wind16%29.88 "Hg10 mi
6:53 PM63 °FSunny.No wind15%29.90 "Hg10 mi
5:53 PM63 °FSunny.5 mph14%29.89 "Hg10 mi
4:53 PM64 °FSunny.8 mph14%29.92 "Hg10 mi
3:53 PM62 °FSunny.7 mph16%29.94 "Hg10 mi
2:53 PM60 °FSunny.3 mph17%29.99 "Hg10 mi
1:53 PM58 °FSunny.N/A19%30.00 "Hg10 mi
12:53 PM56 °FSunny.5 mph18%30.03 "Hg10 mi
11:53 AM54 °FSunny.6 mph19%30.05 "Hg10 mi
10:53 AM50 °FSunny.3 mph20%30.08 "Hg10 mi
9:53 AM48 °FSunny.9 mph24%30.10 "Hg10 mi
8:53 AM44 °FSunny.12 mph28%30.11 "Hg10 mi
7:53 AM38 °FSunny.6 mph37%30.11 "Hg10 mi
6:53 AM31 °FClear.No wind49%30.09 "Hg10 mi
5:53 AM34 °FClear.7 mph38%30.05 "Hg10 mi
4:53 AM28 °FClear.5 mph51%30.07 "Hg10 mi
3:53 AM34 °FClear.3 mph38%30.03 "Hg10 mi
2:53 AM31 °FClear.No wind43%30.03 "Hg10 mi
Weather by CustomWeather, © 2014

See weather overview